Location: Colle Santa Colomba
(42.0333°N, 12.5667°E)
Time: 22:15:55
(UTC+00:00)

SL-16 R/B - Pass Details

Date: 25 October 2021
Orbit: 842 x 846 km, 71.0° (Epoch: 05 December)

Event Time Altitude Azimuth Distance (km) Brightness Sun altitude
Rises 17:36:26 0° 220° (SW) 3,387 6.0 -16.1°
Reaches altitude 10° 17:38:57 10° 226° (SW) 2,457 5.3 -16.6°
Maximum altitude 17:44:23 48° 300° (WNW) 1,101 3.2 -17.6°
Drops below altitude 10° 17:49:51 10° 14° (NNE) 2,474 4.5 -18.6°
Sets 17:52:25 0° 20° (NNE) 3,413 5.2 -19.1°
